Regional Weather Roundup
Issued by NWS

Home | Current Version | Previous Version | Graphics & Text | Print | Product List | Glossary On
Versions: 1 2 3 4 5 6 7 8 9 10 11 12 13 14 15 16 17 18 19 20 21 22 23 24 25 26 27 28 29 30 31 32 33 34 35 36 37 38 39 40 41 42 43 44 45 46 47 48 49 50
000
ASUS45 KBOU 200707
RWRCO

WEATHER ROUNDUP FOR COLORADO
NATIONAL WEATHER SERVICE DENVER/BOULDER CO
100 AM MDT WED AUG 20 2014

NOTE: "FAIR" INDICATES FEW OR NO CLOUDS BELOW 12000 FEET WITH NO
SIGNIFICANT WEATHER AND/OR OBSTRUCTIONS TO VISIBILITY.

COZ001>005-013-030-031-200800-
...NORTHWEST COLORADO...

CITY           SKY/WX    TMP DP  RH WIND       PRES   REMARKS
CRAIG          CLOUDY    57  54  89 E6        30.04S
HAYDEN         CLOUDY    55  52  88 E13       30.06F
MEEKER         CLOUDY    57  54  89 CALM      30.05S
MOUNT WERNER   NOT AVBL
STEAMBOAT SPGS CLOUDY    55  51  87 SE3       30.09F
WALDEN         CLOUDY    50  46  87 SE6       30.16F
$$

COZ006>008-011-200800-
...WEST CENTRAL VALLEYS...

CITY           SKY/WX    TMP DP  RH WIND       PRES   REMARKS
GRAND JUNCTION CLOUDY    62  60  93 NE7       29.98S
MONTROSE       MOCLDY    62  59  90 CALM      30.06R
EAGLE          CLOUDY    57  55  94 CALM      30.10F
RIFLE          CLOUDY    61  58  90 CALM      30.02S
DELTA          RAIN      65  61  87 CALM      30.02S
NUCLA          CLOUDY    64  52  63 SW3       30.10R
$$

COZ017>023-064>068-200800-
...SOUTHWEST COLORADO...

CITY           SKY/WX    TMP DP  RH WIND       PRES   REMARKS
DURANGO        CLOUDY    60  51  72 E5        30.11S
CORTEZ         PTCLDY    59  58  96 CALM      30.08S
PAGOSA SPRINGS LGT RAIN  55  54  95 CALM      30.19F
TELLURIDE      NOT AVBL
WOLF CREEK PAS NOT AVBL
$$

COZ009-010-012-014-032>034-037-058>063-200800-
...CENTRAL COLORADO...

CITY           SKY/WX    TMP DP  RH WIND       PRES   REMARKS
ASPEN          CLOUDY    54  52  93 CALM      30.13F
BUENA VISTA    CLOUDY    57  49  75 CALM      30.15S
COPPER MTN     LGT RAIN  46  41  81 S9        30.41S
BERTHOUD PASS  CLOUDY    39  37  93 SW7       30.45F FOG
COTTONWOOD PAS CLOUDY    57  41  54 W9        30.28R
GUNNISON       CLOUDY    57  46  67 N6        30.16F
KREMMLING      CLOUDY    54  50  87 CALM      30.15S
LEADVILLE      CLOUDY    48  45  89 CALM      30.26S
MONARCH PASS   DRIZZLE   43  39  87 SW18      30.51F
SALIDA         CLOUDY    59  53  79 E5        30.19F
SUNLIGHT       CLOUDY    48  48 100 CALM      30.33R FOG
WILKERSON PASS CLOUDY    50  37  62 SW8       30.38F
$$

COZ069>075-200800-
...SAN LUIS VALLEY/SANGRE DE CRISTO MOUNTAINS...

CITY           SKY/WX    TMP DP  RH WIND       PRES   REMARKS
ALAMOSA        CLOUDY    59  43  55 NE3       30.13R
LA VETA PASS   MOCLDY    54  37  54 S9G23     30.30S
SAGUACHE       CLOUDY    63  43  48 NW8       30.14F
$$

COZ035-036-038>040-200800-
...NORTHERN COLORADO FRONT RANGE...

CITY           SKY/WX    TMP DP  RH WIND       PRES   REMARKS
DENVER INTL AP MOCLDY    68  51  54 S3        29.93S
DMNS CITY PARK   N/A     67  52  59 SE3       29.93R
AURORA         MOCLDY    64  55  74 S5        29.95F
FRONT RANGE AP MOCLDY    64  57  77 S5        29.94F
ERIE MUNI ARPT CLOUDY    64  53  67 W3        29.92S
BOULDER MUN AP CLOUDY    68  50  52 CALM      29.93S
CENTENNIAL     CLOUDY    64  52  64 S6        29.96S
BROOMFIELD     CLOUDY    64  48  55 W8        29.95S
FORT COLLINS   CLOUDY    66  52  59 CALM      29.92F
LONGMONT       CLOUDY    67  55  63 E3        29.93R
$$

COZ041-046-047-076>085-087-088-200800-
...PIKES PEAK/PALMER DIVIDE AND SOUTHERN FOOTHILLS...

CITY           SKY/WX    TMP DP  RH WIND       PRES   REMARKS
COLO. SPRINGS  CLOUDY    64  51  62 NW6       30.01S
A. F. ACADEMY  CLOUDY    60  52  75 NE3       30.02F
ELLICOTT       CLOUDY    63  46  54 E6        29.98S
FALCON         CLOUDY    62  49  61 NW5       30.06S
FORT CARSON    CLOUDY    64  52  63 NW5       29.97F
LIMON          CLOUDY    65  49  56 CALM      29.93F
MONUMENT HILL  CLOUDY    57  46  67 S6        30.05S
TRINIDAD       MOCLDY    66  48  52 SW8       29.97R
$$

COZ042>045-048>051-090-091-200800-
...NORTHEAST COLORADO...

CITY           SKY/WX    TMP DP  RH WIND       PRES   REMARKS
GREELEY ARPT   CLOUDY    63  52  67 CALM      29.90S
AKRON          CLOUDY    64  60  87 W3        29.87F
BURLINGTON     MOCLDY    73  55  53 S10       29.86F
WRAY             N/A     69  61  77 E7        29.84S
STERLING       CLOUDY    64  63  94 CALM      29.84F
HOLYOKE        NOT AVBL
FORT MORGAN    CLOUDY    60  57  90 NW7       29.87F
$$

COZ086-089-092>099-200800-
...SOUTHEAST COLORADO...

CITY           SKY/WX    TMP DP  RH WIND       PRES   REMARKS
PUEBLO         CLOUDY    71  50  47 N7        29.88S
LA JUNTA       MOCLDY    76  54  46 S6        29.84F
LAMAR          CLOUDY    78  56  46 S17       29.81F
SPRINGFIELD      N/A     71  57  61 S15       29.92S
$$



USA.gov is the U.S. government's official web portal to all federal, state and local government web resources and services.